Regional Weather Roundup
Issued by NWS

Home | Current Version | Previous Version | Graphics & Text | Print | Product List | Glossary On
Versions: 1 2 3 4 5 6 7 8 9 10 11 12 13 14 15 16 17 18 19 20 21 22 23 24 25 26 27 28 29 30 31 32 33 34 35 36 37 38 39 40 41 42 43 44 45 46 47 48 49 50
000
ASUS43 KDMX 300601
RWRIA

WEATHER ROUNDUP FOR IOWA
NATIONAL WEATHER SERVICE DES MOINES IA
100 AM CDT SUN APR 30 2017

NOTE: "FAIR" INDICATES FEW OR NO CLOUDS BELOW 12,000 FEET WITH NO
SIGNIFICANT WEATHER AND/OR OBSTRUCTIONS TO VISIBILITY.

* - THESE STATIONS ARE NOT NWS STATIONS...THUS NOT UNDER NWS
QUALITY CONTROL.  THEY ALSO DO NOT REPORT WEATHER SUCH
AS PRECIPITATION OR FOG.

IAZ001>003-012>014-020>022-031>034-043>046-300700-
   NORTHWEST IOWA

CITY           SKY/WX    TMP DP  RH WIND       PRES   REMARKS
CARROLL *      CLOUDY    39  39 100 NE21G31   29.98F FOG     WCI  29
CHEROKEE *     DRIZZLE   43  34  69 NE12      30.04F
DENISON *      CLOUDY    39  37  93 NE18G28   29.99F FOG     WCI  30
ORANGE CITY *  CLOUDY    46  30  53 NE9G17    30.05F
SHELDON *      CLOUDY    45  30  57 NE13      30.05F
SIOUX CITY     CLOUDY    46  32  58 NE14G22   30.04F
6HR MIN TEMP:  46; 6HR MAX TEMP:  50; 6HR PCP: TRACE;

SPENCER        CLOUDY    46  32  58 NE14      30.07F
6HR MIN TEMP:  46; 6HR MAX TEMP:  49;

STORM LAKE *   CLOUDY    41  36  81 NE24G31   30.02F
$$

IAZ055>058-069>071-079>083-090>094-300700-
   SOUTHWEST IOWA

CITY           SKY/WX    TMP DP  RH WIND       PRES   REMARKS
ATLANTIC *     MIX PCPN  39  39 100 NE18G28   29.93F WCI  30
AUDUBON *      LGT RAIN  39  36  87 NE18      29.96F WCI  30
CLARINDA *     CLOUDY    41  39  93 NE16      29.90F
COUNCIL BLFS * MIX PCPN  39  39 100 NE16G26   29.94S WCI  30
CRESTON *      CLOUDY    39  39 100 NE20G30   29.90S WCI  30
HARLAN  *      CLOUDY    39  39 100 NE20G28   29.98F FOG     WCI  30
LAMONI         CLOUDY    40  39  97 NE18G31   29.81F WCI  31
6HR MIN TEMP:  40; 6HR MAX TEMP:  42; 6HR PCP:  0.09;

RED OAK *      MIX PCPN  39  39 100 NE20G26   29.91S WCI  30
SHENANDOAH *   MIX PCPN  41  39  93 NE22      29.89F
$$

IAZ047>049-059>061-072>074-084-300700-
   CENTRAL IOWA

CITY           SKY/WX    TMP DP  RH WIND       PRES   REMARKS
AMES           LGT RAIN  39  39 100 NE17G28   29.97F FOG     WCI  30
6HR MIN TEMP:  39; 6HR MAX TEMP:  44; 6HR PCP:  0.13;

ANKENY *       CLOUDY    39  37  93 NE13G21   29.97F FOG     WCI  32
BOONE *        MIX PCPN  39  39 100 NE21G28   29.97F WCI  29
CHARITON *     CLOUDY    39  39 100 NE22      29.85F WCI  29
DES MOINES     LGT RAIN  41  38  89 NE20      29.94F FOG
6HR MIN TEMP:  41; 6HR MAX TEMP:  44; 6HR PCP:  0.20;

GRINNELL*      DRIZZLE   38  37  97 NE17      29.97F WCI  29
KNOXVILLE *    CLOUDY    41  39  93 NE14G30   29.91F FOG
MARSHALLTOWN   LGT RAIN  39  38  96 NE20G26   29.97F FOG     WCI  29
6HR MIN TEMP:  39; 6HR MAX TEMP:  43; 6HR PCP:  0.09;

NEWTON *       CLOUDY    39  37  93 NE22G32   29.92F FOG     WCI  29
PELLA *        DRIZZLE   40  39  97 NE14G24   29.91F WCI  32
PERRY *        DRIZZLE   40  38  95 NE15G21   29.99S WCI  31
$$

IAZ004>006-015-016-023>025-035-036-300700-
   NORTH CENTRAL IOWA

CITY           SKY/WX    TMP DP  RH WIND       PRES   REMARKS
ALGONA *       DRIZZLE   43  36  75 NE12      30.06F
CLARION *      CLOUDY    39  39 100 NE22G29   30.03F FOG     WCI  29
ESTHERVILLE    CLOUDY    44  33  65 NE13      30.08F
6HR MIN TEMP:  44; 6HR MAX TEMP:  48;

FORT DODGE *   CLOUDY    39  32  75 NE16G24   30.02F WCI  30
MASON CITY     LGT RAIN  42  32  67 E13       30.08F
6HR MIN TEMP:  42; 6HR MAX TEMP:  47; 6HR PCP:  0.01;

FOREST CITY *  DRIZZLE   45  27  49 E9        30.07F
WEBSTER CITY * LGT RAIN  39  37  93 NE16      29.98F WCI  30
IOWA FALLS *   LGT RAIN  39  37  91 NE16G24   30.01F WCI  30
$$

IAZ007>011-017>019-026>030-037>042-050>054-066-300700-
   NORTHEAST IOWA

CITY           SKY/WX    TMP DP  RH WIND       PRES   REMARKS
CEDAR RAPIDS   CLOUDY    40  40 100 NE16      29.98F FOG     WCI  31
6HR MIN TEMP:  39; 6HR MAX TEMP:  42; 6HR PCP:  0.02;

CHARLES CITY * LGT RAIN  43  30  61 NE14G21   30.07F
CLINTON *      CLOUDY    42  40  92 NE21      29.97F
DECORAH *      CLOUDY    43  27  52 E14       30.07S
DUBUQUE        CLOUDY    38  37  97 NE15      30.01R FOG     WCI  29
6HR MIN TEMP:  38; 6HR MAX TEMP:  41; 6HR PCP:  0.03;

MONTICELLO *   CLOUDY    39  39 100 NE13G21   29.99F WCI  32
OELWEIN *      CLOUDY    41  34  75 NE16G22   30.04S
WATERLOO       LGT RAIN  39  36  89 NE16      30.04F FOG     WCI  30
6HR MIN TEMP:  39; 6HR MAX TEMP:  44; 6HR PCP: TRACE;

$$

IAZ064-065-067-068-078-300700-
   EAST CENTRAL IOWA

CITY           SKY/WX    TMP DP  RH WIND       PRES   REMARKS
DAVENPORT      CLOUDY    42  40  92 NE14      29.96F
6HR MIN TEMP:  40; 6HR MAX TEMP:  42; 6HR PCP: TRACE;

IOWA CITY      CLOUDY    42  39  89 NE14      29.99S
6HR MIN TEMP:  41; 6HR MAX TEMP:  44; 6HR PCP:  0.01;

MUSCATINE *    CLOUDY    43  41  93 NE15G23   29.95F
QUAD CITIES    CLOUDY    43  40  89 NE12      29.95F
6HR MIN TEMP:  41; 6HR MAX TEMP:  43; 6HR PCP:  0.01;

$$

IAZ062-063-075>077-085>089-095>099-300700-
   SOUTHEAST IOWA

CITY           SKY/WX    TMP DP  RH WIND       PRES   REMARKS
BURLINGTON     CLOUDY    42  42 100 NE13G23   29.90F
6HR MIN TEMP:  41; 6HR MAX TEMP:  42;

FAIRFIELD *    CLOUDY    41  39  93 NE13G20   29.95R
FORT MADISON * CLOUDY    43  43 100 NE13G21   29.92R
KEOKUK *       MIX PCPN  43  41  93 NE8G18    29.91R
OSKALOOSA *    CLOUDY    40  39  97 NE17      29.95F FOG     WCI  31
OTTUMWA        CLOUDY    41  41 100 NE14      29.95S FOG
6HR MIN TEMP:  41; 6HR MAX TEMP:  43; 6HR PCP:  0.08;

WASHINGTON *   CLOUDY    41  41 100 NE18      29.96R
$$

ABBREVIATIONS USED IN REMARKS
   TC - TEMPERATURES IN CELSIUS
  WCI - WIND CHILL INDEX
   HX - HEAT INDEX
  VSB - VISIBILITY
$$





USA.gov is the U.S. government's official web portal to all federal, state and local government web resources and services.